This demonstration page uses our WeatherBlox Daily Observations layout. Learn more.

Left ArrowRight Arrow

Hourly Observations for January 1, 2018

Temp ( °F °C ) Dew Point ( °F °C ) Humidity (%) Winds ( mph kmh ) Pressure ( in mb ) Visibility ( mi km ) Precip ( " mm )
12:15 am 00:15 Clear 14 -10 9 -13 79 79 NW 10 17 30.48 1032 10 16.0934 0 0
12:35 am 00:35 Partly Cloudy 14 -10 7 -14 73 73 NW 7 11 30.48 1032 10 16.0934 0 0
12:55 am 00:55 Mostly Cloudy 14 -10 7 -14 73 73 NW 6 9 30.48 1032 10 16.0934 0 0
1:15 am 01:15 Mostly Cloudy 14 -10 7 -14 73 73 NW 5 7 30.48 1032 10 16.0934 0 0
1:35 am 01:35 Partly Cloudy 14 -10 7 -14 73 73 W 3 6 30.48 1032 10 16.0934 0 0
1:55 am 01:55 Clear 14 -10 5 -15 67 67 W 5 7 30.48 1032 10 16.0934 0 0
2:15 am 02:15 Clear 14 -10 5 -15 67 67 W 3 6 30.48 1032 10 16.0934 0 0
2:35 am 02:35 Clear 12 -11 5 -15 73 73 W 3 6 30.5 1033 10 16.0934 0 0
2:55 am 02:55 Clear 12 -11 7 -14 79 79 W 3 6 30.5 1033 10 16.0934 0 0
3:15 am 03:15 Clear 10 -12 5 -15 79 79 WNW 5 7 30.5 1033 10 16.0934 0 0
3:35 am 03:35 Clear 12 -11 7 -14 79 79 WNW 8 13 30.5 1033 10 16.0934 0 0
3:55 am 03:55 Clear 12 -11 7 -14 79 79 WNW 7 11 30.5 1033 10 16.0934 0 0
4:15 am 04:15 Clear 12 -11 7 -14 79 79 NW 6 9 30.5 1033 10 16.0934 0 0
4:35 am 04:35 Partly Cloudy 12 -11 7 -14 79 79 WNW 5 7 30.5 1033 10 16.0934 0 0
4:55 am 04:55 Clear 12 -11 7 -14 79 79 WNW 5 7 30.5 1033 10 16.0934 0 0
5:15 am 05:15 Clear 12 -11 7 -14 79 79 W 5 7 30.5 1033 10 16.0934 0 0
5:35 am 05:35 Clear 12 -11 7 -14 79 79 WNW 5 7 30.5 1033 10 16.0934 0 0
5:55 am 05:55 Clear 12 -11 7 -14 79 79 WNW 3 6 30.5 1033 10 16.0934 0 0
6:15 am 06:15 Clear 12 -11 7 -14 79 79 WNW 3 6 30.5 1033 10 16.0934 0 0
6:35 am 06:35 Clear 12 -11 5 -15 73 73 WNW 5 7 30.5 1033 10 16.0934 0 0
6:55 am 06:55 Clear 10 -12 5 -15 79 79 WNW 6 9 30.53 1034 10 16.0934 0 0
7:15 am 07:15 Clear 10 -12 5 -15 79 79 WNW 6 9 30.53 1034 10 16.0934 0 0
7:35 am 07:35 Sunny 12 -11 5 -15 73 73 WNW 6 9 30.53 1034 10 16.0934 0 0
7:55 am 07:55 Sunny 12 -11 7 -14 79 79 WNW 7 11 30.56 1035 10 16.0934 0 0
8:15 am 08:15 Sunny 14 -10 9 -13 79 79 WNW 7 11 30.56 1035 10 16.0934 0 0
8:35 am 08:35 Sunny 16 -9 9 -13 73 73 NW 6 9 30.56 1035 10 16.0934 0 0
8:55 am 08:55 Sunny 18 -8 10 -12 73 73 WNW 9 15 30.56 1035 10 16.0934 0 0
9:15 am 09:15 Sunny 19 -7 10 -12 68 68 NW 10 17 30.56 1035 10 16.0934 0 0
9:35 am 09:35 Sunny 19 -7 10 -12 68 68 NW 15 24 30.56 1035 10 16.0934 0 0
9:55 am 09:55 Sunny 19 -7 9 -13 63 63 NNW 15 24 30.56 1035 10 16.0934 0 0
10:15 am 10:15 Sunny 21 -6 10 -12 63 63 NW 15 24 30.56 1035 10 16.0934 0 0
10:35 am 10:35 Sunny 21 -6 10 -12 63 63 NW 10 17 30.56 1035 10 16.0934 0 0
10:55 am 10:55 Sunny 21 -6 10 -12 63 63 WNW 13 20 30.56 1035 10 16.0934 0 0
11:15 am 11:15 Sunny 21 -6 9 -13 58 58 WNW 10 17 30.56 1035 10 16.0934 0 0
11:35 am 11:35 Partly Cloudy 23 -5 9 -13 54 54 NW 14 22 30.56 1035 10 16.0934 0 0
11:55 am 11:55 Cloudy 25 -4 9 -13 50 50 NW 13 20 30.53 1034 10 16.0934 0 0
12:15 pm 12:15 Cloudy 23 -5 7 -14 50 50 N 8 13 30.53 1034 10 16.0934 0 0
12:35 pm 12:35 Cloudy 23 -5 7 -14 50 50 NW 12 19 30.53 1034 10 16.0934 0 0
12:55 pm 12:55 Cloudy 23 -5 5 -15 46 46 NW 14 22 30.5 1033 10 16.0934 0 0
1:15 pm 13:15 Cloudy 23 -5 5 -15 46 46 NW 15 24 30.5 1033 10 16.0934 0 0
1:35 pm 13:35 Cloudy 23 -5 7 -14 50 50 W 13 20 30.5 1033 10 16.0934 0 0
1:55 pm 13:55 Cloudy 23 -5 7 -14 50 50 NNW 13 20 30.5 1033 10 16.0934 0 0
2:15 pm 14:15 Cloudy 23 -5 7 -14 50 50 NNW 10 17 30.5 1033 10 16.0934 0 0
2:35 pm 14:35 Cloudy 23 -5 5 -15 46 46 NW 20 31 30.5 1033 10 16.0934 0 0
2:55 pm 14:55 Cloudy 25 -4 5 -15 42 42 NW 13 20 30.48 1032 10 16.0934 0 0
3:15 pm 15:15 Cloudy 23 -5 5 -15 46 46 NW 13 20 30.5 1033 10 16.0934 0 0
3:35 pm 15:35 Cloudy 25 -4 5 -15 42 42 NW 8 13 30.45 1031 10 16.0934 0 0
3:55 pm 15:55 Mostly Cloudy 23 -5 5 -15 46 46 NW 15 24 30.48 1032 10 16.0934 0 0
4:15 pm 16:15 Mostly Cloudy 23 -5 5 -15 46 46 NW 13 20 30.5 1033 10 16.0934 0 0
4:35 pm 16:35 Mostly Cloudy 23 -5 5 -15 46 46 NW 15 24 30.48 1032 10 16.0934 0 0
4:55 pm 16:55 Partly Cloudy 23 -5 5 -15 46 46 NW 10 17 30.5 1033 10 16.0934 0 0
5:15 pm 17:15 Clear 21 -6 3 -16 45 45 WNW 16 26 30.5 1033 10 16.0934 0 0
5:35 pm 17:35 Clear 21 -6 3 -16 45 45 WNW 14 22 30.5 1033 10 16.0934 0 0
5:55 pm 17:55 Clear 21 -6 3 -16 45 45 NW 18 30 30.5 1033 10 16.0934 0 0
6:15 pm 18:15 Clear 21 -6 3 -16 45 45 NW 16 26 30.5 1033 10 16.0934 0 0
6:35 pm 18:35 Clear 19 -7 3 -16 49 49 NW 16 26 30.5 1033 10 16.0934 0 0
6:55 pm 18:55 Clear 19 -7 3 -16 49 49 WNW 14 22 30.53 1034 10 16.0934 0 0
7:15 pm 19:15 Clear 19 -7 3 -16 49 49 NW 15 24 30.56 1035 10 16.0934 0 0
7:35 pm 19:35 Partly Cloudy 18 -8 3 -16 53 53 NW 18 30 30.56 1035 10 16.0934 0 0
7:55 pm 19:55 Clear 18 -8 3 -16 53 53 WNW 18 30 30.56 1035 10 16.0934 0 0
8:15 pm 20:15 Mostly Cloudy 18 -8 3 -16 53 53 WNW 18 30 30.56 1035 10 16.0934 0 0
8:35 pm 20:35 Cloudy 18 -8 3 -16 53 53 NW 15 24 30.56 1035 10 16.0934 0 0
8:55 pm 20:55 Cloudy 18 -8 5 -15 58 58 WNW 13 20 30.56 1035 10 16.0934 0 0
9:15 pm 21:15 Cloudy 18 -8 3 -16 53 53 NNW 17 28 30.56 1035 10 16.0934 0 0
9:35 pm 21:35 Mostly Cloudy 16 -9 3 -16 57 57 NW 14 22 30.56 1035 10 16.0934 0 0
9:55 pm 21:55 Partly Cloudy 16 -9 3 -16 57 57 NW 12 19 30.56 1035 10 16.0934 0 0
10:15 pm 22:15 Clear 14 -10 1 -17 57 57 NW 15 24 30.56 1035 10 16.0934 0 0
10:35 pm 22:35 Clear 14 -10 1 -17 57 57 NNW 12 19 30.56 1035 10 16.0934 0 0
10:55 pm 22:55 Clear 14 -10 1 -17 57 57 NNW 10 17 30.59 1036 10 16.0934 0 0
11:15 pm 23:15 Clear 14 -10 1 -17 57 57 NW 14 22 30.56 1035 10 16.0934 0 0
11:35 pm 23:35 Clear 14 -10 1 -17 57 57 NNW 12 19 30.56 1035 10 16.0934 0 0
11:55 pm 23:55 Clear 14 -10 1 -17 57 57 NW 12 19 30.56 1035 10 16.0934 0 0

Powered by AerisWeather